Regional Weather Roundup
Issued by NWS

Home | Current Version | Previous Version | Graphics & Text | Print | Product List | Glossary On
Versions: 1 2 3 4 5 6 7 8 9 10 11 12 13 14 15 16 17 18 19 20 21 22 23 24 25 26 27 28 29 30 31 32 33 34 35 36 37 38 39 40 41 42 43 44 45 46 47 48 49 50
000
ASUS44 KMEG 300210
RWRTN
TENNESSEE HOURLY STATE WEATHER ROUNDUP
NATIONAL WEATHER SERVICE MEMPHIS TN
900 PM CDT THU SEP 29 2016

TNZ002-004-019-021-049-052-054-088>092-300300-
WEST TENNESSEE

CITY           SKY/WX    TMP DP  RH WIND       PRES   REMARKS
MEMPHIS INTL   PTCLDY    65  53  65 N3        30.15R
NWS MEMPHIS      N/A     62 N/A N/A MISG        N/A
JACKSON          N/A    N/A N/A N/A MISG      30.15R
DYERSBURG      CLOUDY   N/A N/A N/A MISG        N/A
UNION CITY     PTCLDY    59  55  88 NW7       30.14S
PARIS          PTCLDY    55  54  94 CALM      30.14S
HUNTINGDON     CLOUDY    59  55  88 CALM      30.12S
LEXINGTON      PTCLDY    52  52 100 CALM      30.14R
$$

TNZ008-025-027-028-033-062-065-066-300300-
NORTH MIDDLE TENNESSEE

CITY           SKY/WX    TMP DP  RH WIND       PRES   REMARKS
NASHVILLE      CLEAR     54  51  90 W3        30.13R
PORTLAND       MOCLDY    52  52 100 CALM      30.12S
CLARKSVILLE    CLOUDY    55  53  93 CALM      30.12S FOG
SMYRNA         PTCLDY    55  51  86 W5        30.13S
COOKEVILLE     CLEAR     48  48 100 CALM      30.11S
GALLATIN       CLEAR     54  52  94 CALM      30.14F
CROSSVILLE     CLEAR     51  47  86 NW3       30.12S
$$

TNZ061-075-076-078-094-096-097-300300-
SOUTH MIDDLE TENNESSEE

CITY           SKY/WX    TMP DP  RH WIND       PRES   REMARKS
FAYETTEVILLE   CLOUDY    55  52  88 CALM      30.13R
TULLAHOMA      MOCLDY    55  52  88 NW3       30.13S
WINCHESTER     CLOUDY    57  52  82 NW5       30.12S
MCMINNVILLE    CLOUDY    55  52  88 N3        30.12R
COLUMBIA       CLEAR    N/A N/A N/A CALM      30.12S
SHELBYVILLE    CLEAR     54  52  94 CALM      30.14R
$$

TNZ017-018-042-046-047-300300-
NORTHEAST TENNESSEE

CITY           SKY/WX    TMP DP  RH WIND       PRES   REMARKS
TRI CITIES     CLOUDY    59  55  87 CALM      30.09R
ELIZABETHTON   CLOUDY    59  57  94 SW6       30.09R
$$

TNZ012-013-036-069-073-074-300300-
CENTRAL EAST TENNESSEE

CITY           SKY/WX    TMP DP  RH WIND       PRES   REMARKS
KNOXVILLE      MOCLDY    62  47  57 N7        30.08R
OAK RIDGE      PTCLDY    58  47  66 CALM      30.11R
DOWNTOWN KNOXV CLOUDY    63  50  63 CALM      30.09R
GATLINBURG     CLOUDY    63  48  59 NW3       30.08S
MORRISTOWN     CLOUDY    61  48  63 CALM      30.08S
JACKSBORO      CLEAR     55  48  76 CALM      30.13R
$$

TNZ083-085-099-300300-
SOUTHEAST TENNESSEE

CITY           SKY/WX    TMP DP  RH WIND       PRES   REMARKS
CHATTANOOGA    MOCLDY    64  46  52 N12       30.09S
$$

SKY/WX REPORTED AS FAIR MEANS FEW OR NO CLOUDS BELOW
12 THOUSAND FEET.





USA.gov is the U.S. government's official web portal to all federal, state and local government web resources and services.